Year,Month,Day,Hour,Minute,Value (Times are PST for temperature in C)
2017,06,25,00,00,17.20
2017,06,25,00,01,17.10
2017,06,25,00,02,17.10
2017,06,25,00,03,17.10
2017,06,25,00,04,17.10
2017,06,25,00,05,16.90
2017,06,25,00,06,16.70
2017,06,25,00,07,16.60
2017,06,25,00,08,16.50
2017,06,25,00,09,16.50
2017,06,25,00,10,16.50
2017,06,25,00,11,16.40
2017,06,25,00,12,16.40
2017,06,25,00,13,16.30
2017,06,25,00,14,16.30
2017,06,25,00,15,16.30
2017,06,25,00,16,16.30
2017,06,25,00,17,16.20
2017,06,25,00,18,16.20
2017,06,25,00,19,16.20
2017,06,25,00,20,16.20
2017,06,25,00,21,16.20
2017,06,25,00,22,16.10
2017,06,25,00,23,16.10
2017,06,25,00,24,16.00
2017,06,25,00,25,16.00
2017,06,25,00,26,16.00
2017,06,25,00,27,16.00
2017,06,25,00,28,16.10
2017,06,25,00,29,16.10
2017,06,25,00,30,16.20
2017,06,25,00,31,16.20
2017,06,25,00,32,16.30
2017,06,25,00,33,16.30
2017,06,25,00,34,16.30
2017,06,25,00,35,16.30
2017,06,25,00,36,16.30
2017,06,25,00,37,16.30
2017,06,25,00,38,16.30
2017,06,25,00,39,16.20
2017,06,25,00,40,16.20
2017,06,25,00,41,16.20
2017,06,25,00,42,16.20
2017,06,25,00,43,16.10
2017,06,25,00,44,16.10
2017,06,25,00,45,16.10
2017,06,25,00,46,16.10
2017,06,25,00,47,16.00
2017,06,25,00,48,16.00
2017,06,25,00,49,16.00
2017,06,25,00,50,16.00
2017,06,25,00,51,16.00
2017,06,25,00,52,16.00
2017,06,25,00,53,16.00
2017,06,25,00,54,16.10
2017,06,25,00,55,16.10
2017,06,25,00,56,16.00
2017,06,25,00,57,16.00
2017,06,25,00,58,16.00
2017,06,25,00,59,16.00
2017,06,25,01,00,16.00
2017,06,25,01,01,16.10
2017,06,25,01,02,16.10
2017,06,25,01,03,16.20
2017,06,25,01,04,16.20
2017,06,25,01,05,16.20
2017,06,25,01,06,16.20
2017,06,25,01,07,16.10
2017,06,25,01,08,16.10
2017,06,25,01,09,16.20
2017,06,25,01,10,16.20
2017,06,25,01,11,16.20
2017,06,25,01,12,16.20
2017,06,25,01,13,16.20
2017,06,25,01,14,16.20
2017,06,25,01,15,16.20
2017,06,25,01,16,16.20
2017,06,25,01,17,16.30
2017,06,25,01,18,16.30
2017,06,25,01,19,16.30
2017,06,25,01,20,16.30
2017,06,25,01,21,16.30
2017,06,25,01,22,16.30
2017,06,25,01,23,16.30
2017,06,25,01,24,16.30
2017,06,25,01,25,16.40
2017,06,25,01,26,16.40
2017,06,25,01,27,16.40
2017,06,25,01,28,16.40
2017,06,25,01,29,16.30
2017,06,25,01,30,16.30
2017,06,25,01,31,16.30
2017,06,25,01,32,16.30
2017,06,25,01,33,16.30
2017,06,25,01,34,16.30
2017,06,25,01,35,16.30
2017,06,25,01,36,16.30
2017,06,25,01,37,16.30
2017,06,25,01,38,16.30
2017,06,25,01,39,16.30
2017,06,25,01,40,16.30
2017,06,25,01,41,16.30
2017,06,25,01,42,16.30
2017,06,25,01,43,16.20
2017,06,25,01,44,16.20
2017,06,25,01,45,16.20
2017,06,25,01,46,16.20
2017,06,25,01,47,16.30
2017,06,25,01,48,16.30
2017,06,25,01,49,16.30
2017,06,25,01,50,16.30
2017,06,25,01,51,16.30
2017,06,25,01,52,16.30
2017,06,25,01,53,16.30
2017,06,25,01,54,16.20
2017,06,25,01,55,16.20
2017,06,25,01,56,16.20
2017,06,25,01,57,16.20
2017,06,25,01,58,16.20
2017,06,25,01,59,16.20
2017,06,25,02,00,16.20
2017,06,25,02,01,16.30
2017,06,25,02,02,16.30
2017,06,25,02,03,16.30
2017,06,25,02,04,16.30
2017,06,25,02,05,16.30
2017,06,25,02,06,16.30
2017,06,25,02,07,16.10
2017,06,25,02,08,16.00
2017,06,25,02,09,15.90
2017,06,25,02,10,15.80
2017,06,25,02,11,15.70
2017,06,25,02,12,15.70
2017,06,25,02,13,15.70
2017,06,25,02,14,15.70
2017,06,25,02,15,15.70
2017,06,25,02,16,15.70
2017,06,25,02,17,15.80
2017,06,25,02,18,15.80
2017,06,25,02,19,15.80
2017,06,25,02,20,15.80
2017,06,25,02,21,15.80
2017,06,25,02,22,15.80
2017,06,25,02,23,15.80
2017,06,25,02,24,15.80
2017,06,25,02,25,15.90
2017,06,25,02,26,15.90
2017,06,25,02,27,15.90
2017,06,25,02,28,16.00
2017,06,25,02,29,16.00
2017,06,25,02,30,16.00
2017,06,25,02,31,16.00
2017,06,25,02,32,16.10
2017,06,25,02,33,16.10
2017,06,25,02,34,16.10
2017,06,25,02,35,16.10
2017,06,25,02,36,16.10
2017,06,25,02,37,16.10
2017,06,25,02,38,16.10
2017,06,25,02,39,16.10
2017,06,25,02,40,16.10
2017,06,25,02,41,16.00
2017,06,25,02,42,16.00
2017,06,25,02,43,15.90
2017,06,25,02,44,15.90
2017,06,25,02,45,15.80
2017,06,25,02,46,15.80
2017,06,25,02,47,15.80
2017,06,25,02,48,15.80
2017,06,25,02,49,15.80
2017,06,25,02,50,15.80
2017,06,25,02,51,15.80
2017,06,25,02,52,15.70
2017,06,25,02,53,15.70
2017,06,25,02,54,15.70
2017,06,25,02,55,15.70
2017,06,25,02,56,15.70
2017,06,25,02,57,15.70
2017,06,25,02,58,15.60
2017,06,25,02,59,15.60
2017,06,25,03,00,15.60
2017,06,25,03,01,15.50
2017,06,25,03,02,15.50
2017,06,25,03,03,15.40
2017,06,25,03,04,15.40
2017,06,25,03,05,15.30
2017,06,25,03,06,15.30
2017,06,25,03,07,15.20
2017,06,25,03,08,15.20
2017,06,25,03,09,15.20
2017,06,25,03,10,15.20
2017,06,25,03,11,15.20
2017,06,25,03,12,15.10
2017,06,25,03,13,15.10
2017,06,25,03,14,15.00
2017,06,25,03,15,14.90
2017,06,25,03,16,14.90
2017,06,25,03,17,14.80
2017,06,25,03,18,14.80
2017,06,25,03,19,14.70
2017,06,25,03,20,14.70
2017,06,25,03,21,14.60
2017,06,25,03,22,14.60
2017,06,25,03,23,14.50
2017,06,25,03,24,14.40
2017,06,25,03,25,14.40
2017,06,25,03,26,14.30
2017,06,25,03,27,14.30
2017,06,25,03,28,14.30
2017,06,25,03,29,14.30
2017,06,25,03,30,14.30
2017,06,25,03,31,14.30
2017,06,25,03,32,14.20
2017,06,25,03,33,14.20
2017,06,25,03,34,14.10
2017,06,25,03,35,14.00
2017,06,25,03,36,14.00
2017,06,25,03,37,13.90
2017,06,25,03,38,13.90
2017,06,25,03,39,13.90
2017,06,25,03,40,13.90
2017,06,25,03,41,13.90
2017,06,25,03,42,14.00
2017,06,25,03,43,14.00
2017,06,25,03,44,14.10
2017,06,25,03,45,14.10
2017,06,25,03,46,14.10
2017,06,25,03,47,14.10
2017,06,25,03,48,14.10
2017,06,25,03,49,14.20
2017,06,25,03,50,14.20
2017,06,25,03,51,14.20
2017,06,25,03,52,14.30
2017,06,25,03,53,14.30
2017,06,25,03,54,14.30
2017,06,25,03,55,14.30
2017,06,25,03,56,14.30
2017,06,25,03,57,14.30
2017,06,25,03,58,14.20
2017,06,25,03,59,14.10
2017,06,25,04,00,14.10
2017,06,25,04,01,14.00
2017,06,25,04,02,14.00
2017,06,25,04,03,13.90
2017,06,25,04,04,13.90
2017,06,25,04,05,13.90
2017,06,25,04,06,14.00
2017,06,25,04,07,14.00
2017,06,25,04,08,14.00
2017,06,25,04,09,14.10
2017,06,25,04,10,14.10
2017,06,25,04,11,14.00
2017,06,25,04,12,14.10
2017,06,25,04,13,14.10
2017,06,25,04,14,14.10
2017,06,25,04,15,14.10
2017,06,25,04,16,14.10
2017,06,25,04,17,14.10
2017,06,25,04,18,14.10
2017,06,25,04,19,14.10
2017,06,25,04,20,14.10
2017,06,25,04,21,14.10
2017,06,25,04,22,14.10
2017,06,25,04,23,14.10
2017,06,25,04,24,14.10
2017,06,25,04,25,14.10
2017,06,25,04,26,14.20
2017,06,25,04,27,14.20
2017,06,25,04,28,14.20
2017,06,25,04,29,14.30
2017,06,25,04,30,14.30
2017,06,25,04,31,14.30
2017,06,25,04,32,14.30
2017,06,25,04,33,14.30
2017,06,25,04,34,14.30
2017,06,25,04,35,14.30
2017,06,25,04,36,14.20
2017,06,25,04,37,14.20
2017,06,25,04,38,14.20
2017,06,25,04,39,14.10
2017,06,25,04,40,14.00
2017,06,25,04,41,14.00
2017,06,25,04,42,13.90
2017,06,25,04,43,13.80
2017,06,25,04,44,13.80
2017,06,25,04,45,13.70
2017,06,25,04,46,13.70
2017,06,25,04,47,13.60
2017,06,25,04,48,13.50
2017,06,25,04,49,13.50
2017,06,25,04,50,13.40
2017,06,25,04,51,13.40
2017,06,25,04,52,13.30
2017,06,25,04,53,13.30
2017,06,25,04,54,13.20
2017,06,25,04,55,13.20
2017,06,25,04,56,13.20
2017,06,25,04,57,13.20
2017,06,25,04,58,13.20
2017,06,25,04,59,13.30
2017,06,25,05,00,13.20
2017,06,25,05,01,13.20
2017,06,25,05,02,13.20
2017,06,25,05,03,13.10
2017,06,25,05,04,13.10
2017,06,25,05,05,13.00
2017,06,25,05,06,13.00
2017,06,25,05,07,13.00
2017,06,25,05,08,12.90
2017,06,25,05,09,12.80
2017,06,25,05,10,12.80
2017,06,25,05,11,12.80
2017,06,25,05,12,12.80
2017,06,25,05,13,12.80
2017,06,25,05,14,12.80
2017,06,25,05,15,12.80
2017,06,25,05,16,12.80
2017,06,25,05,17,12.80
2017,06,25,05,18,12.80
2017,06,25,05,19,12.80
2017,06,25,05,20,12.80
2017,06,25,05,21,12.70
2017,06,25,05,22,12.70
2017,06,25,05,23,12.70
2017,06,25,05,24,12.60
2017,06,25,05,25,12.60
2017,06,25,05,26,12.60
2017,06,25,05,27,12.60
2017,06,25,05,28,12.50
2017,06,25,05,29,12.50
2017,06,25,05,30,12.40
2017,06,25,05,31,12.40
2017,06,25,05,32,12.40
2017,06,25,05,33,12.30
2017,06,25,05,34,12.30
2017,06,25,05,35,12.30
2017,06,25,05,36,12.30
2017,06,25,05,37,12.30
2017,06,25,05,38,12.20
2017,06,25,05,39,12.20
2017,06,25,05,40,12.20
2017,06,25,05,41,12.20
2017,06,25,05,42,12.20
2017,06,25,05,43,12.30
2017,06,25,05,44,12.40
2017,06,25,05,45,12.40
2017,06,25,05,46,12.50
2017,06,25,05,47,12.60
2017,06,25,05,48,12.70
2017,06,25,05,49,12.80
2017,06,25,05,50,12.90
2017,06,25,05,51,12.90
2017,06,25,05,52,13.00
2017,06,25,05,53,13.00
2017,06,25,05,54,13.10
2017,06,25,05,55,13.10
2017,06,25,05,56,13.10
2017,06,25,05,57,13.10
2017,06,25,05,58,13.10
2017,06,25,05,59,13.10
2017,06,25,06,00,13.00
2017,06,25,06,01,13.00
2017,06,25,06,02,13.00
2017,06,25,06,03,13.00
2017,06,25,06,04,13.00
2017,06,25,06,05,13.10
2017,06,25,06,06,13.10
2017,06,25,06,07,13.20
2017,06,25,06,08,13.20
2017,06,25,06,09,13.20
2017,06,25,06,10,13.30
2017,06,25,06,11,13.30
2017,06,25,06,12,13.30
2017,06,25,06,13,13.30
2017,06,25,06,14,13.40
2017,06,25,06,15,13.40
2017,06,25,06,16,13.40
2017,06,25,06,17,13.50
2017,06,25,06,18,13.50
2017,06,25,06,19,13.60
2017,06,25,06,20,13.60
2017,06,25,06,21,13.70
2017,06,25,06,22,13.70
2017,06,25,06,23,13.80
2017,06,25,06,24,13.90
2017,06,25,06,25,13.90
2017,06,25,06,26,14.00
2017,06,25,06,27,14.10
2017,06,25,06,28,14.20
2017,06,25,06,29,14.30
2017,06,25,06,30,14.40
2017,06,25,06,31,14.50
2017,06,25,06,32,14.60
2017,06,25,06,33,14.60
2017,06,25,06,34,14.70
2017,06,25,06,35,14.80
2017,06,25,06,36,14.80
2017,06,25,06,37,14.80
2017,06,25,06,38,14.80
2017,06,25,06,39,14.80
2017,06,25,06,40,14.90
2017,06,25,06,41,14.90
2017,06,25,06,42,14.90
2017,06,25,06,43,14.90
2017,06,25,06,44,14.90
2017,06,25,06,45,14.90
2017,06,25,06,46,15.00
2017,06,25,06,47,15.00
2017,06,25,06,48,15.00
2017,06,25,06,49,15.10
2017,06,25,06,50,15.10
2017,06,25,06,51,15.10
2017,06,25,06,52,15.20
2017,06,25,06,53,15.20
2017,06,25,06,54,15.30
2017,06,25,06,55,15.40
2017,06,25,06,56,15.40
2017,06,25,06,57,15.50
2017,06,25,06,58,15.50
2017,06,25,06,59,15.60
2017,06,25,07,00,15.60
2017,06,25,07,01,15.70
2017,06,25,07,02,15.70
2017,06,25,07,03,15.70
2017,06,25,07,04,15.80
2017,06,25,07,05,15.80
2017,06,25,07,06,15.80
2017,06,25,07,07,15.80
2017,06,25,07,08,15.80
2017,06,25,07,09,15.80
2017,06,25,07,10,15.90
2017,06,25,07,11,15.90
2017,06,25,07,12,15.90
2017,06,25,07,13,15.90
2017,06,25,07,14,15.90
2017,06,25,07,15,15.90
2017,06,25,07,16,15.90
2017,06,25,07,17,15.90
2017,06,25,07,18,15.90
2017,06,25,07,19,16.00
2017,06,25,07,20,16.00
2017,06,25,07,21,16.00
2017,06,25,07,22,16.10
2017,06,25,07,23,16.10
2017,06,25,07,24,16.10
2017,06,25,07,25,16.10
2017,06,25,07,26,16.20
2017,06,25,07,27,16.20
2017,06,25,07,28,16.20
2017,06,25,07,29,16.30
2017,06,25,07,30,16.30
2017,06,25,07,31,16.30
2017,06,25,07,32,16.30
2017,06,25,07,33,16.40
2017,06,25,07,34,16.40
2017,06,25,07,35,16.50
2017,06,25,07,36,16.50
2017,06,25,07,37,16.50
2017,06,25,07,38,16.60
2017,06,25,07,39,16.60
2017,06,25,07,40,16.60
2017,06,25,07,41,16.70
2017,06,25,07,42,16.70
2017,06,25,07,43,16.70
2017,06,25,07,44,16.80
2017,06,25,07,45,16.80
2017,06,25,07,46,16.80
2017,06,25,07,47,16.80
2017,06,25,07,48,16.80
2017,06,25,07,49,16.70
2017,06,25,07,50,16.70
2017,06,25,07,51,16.70
2017,06,25,07,52,16.70
2017,06,25,07,53,16.80
2017,06,25,07,54,16.80
2017,06,25,07,55,16.80
2017,06,25,07,56,16.80
2017,06,25,07,57,16.80
2017,06,25,07,58,16.80
2017,06,25,07,59,16.90
2017,06,25,08,00,16.90
2017,06,25,08,01,17.00
2017,06,25,08,02,17.00
2017,06,25,08,03,17.00
2017,06,25,08,04,17.10
2017,06,25,08,05,17.10
2017,06,25,08,06,17.10
2017,06,25,08,07,17.20
2017,06,25,08,08,17.20
2017,06,25,08,09,17.10
2017,06,25,08,10,17.10
2017,06,25,08,11,17.10
2017,06,25,08,12,17.10
2017,06,25,08,13,17.10
2017,06,25,08,14,17.10
2017,06,25,08,15,17.10
2017,06,25,08,16,17.10
2017,06,25,08,17,17.20
2017,06,25,08,18,17.20
2017,06,25,08,19,17.20
2017,06,25,08,20,17.20
2017,06,25,08,21,17.20
2017,06,25,08,22,17.20
2017,06,25,08,23,17.20
2017,06,25,08,24,17.10
2017,06,25,08,25,17.10
2017,06,25,08,26,17.00
2017,06,25,08,27,17.00
2017,06,25,08,28,16.90
2017,06,25,08,29,16.90
2017,06,25,08,30,16.90
2017,06,25,08,31,16.90
2017,06,25,08,32,16.90
2017,06,25,08,33,16.90
2017,06,25,08,34,17.00
2017,06,25,08,35,17.00
2017,06,25,08,36,17.00
2017,06,25,08,37,17.10
2017,06,25,08,38,17.10
2017,06,25,08,39,17.10
2017,06,25,08,40,17.10
2017,06,25,08,41,17.10
2017,06,25,08,42,17.10
2017,06,25,08,43,17.10
2017,06,25,08,44,17.00
2017,06,25,08,45,17.00
2017,06,25,08,46,17.00
2017,06,25,08,47,16.90
2017,06,25,08,48,16.90
2017,06,25,08,49,16.90
2017,06,25,08,50,16.90
2017,06,25,08,51,16.90
2017,06,25,08,52,16.80
2017,06,25,08,53,16.80
2017,06,25,08,54,16.80
2017,06,25,08,55,16.80
2017,06,25,08,56,16.70
2017,06,25,08,57,16.70
2017,06,25,08,58,16.70
2017,06,25,08,59,16.70
2017,06,25,09,00,16.70
2017,06,25,09,01,16.70
2017,06,25,09,02,16.70
2017,06,25,09,03,16.70
2017,06,25,09,04,16.70
2017,06,25,09,05,16.70
2017,06,25,09,06,16.70
2017,06,25,09,07,16.70
2017,06,25,09,08,16.70
2017,06,25,09,09,16.70
2017,06,25,09,10,16.70
2017,06,25,09,11,16.60
2017,06,25,09,12,16.60
2017,06,25,09,13,16.60
2017,06,25,09,14,16.50
2017,06,25,09,15,16.50
2017,06,25,09,16,16.50
2017,06,25,09,17,16.50
2017,06,25,09,18,16.60
2017,06,25,09,19,16.60
2017,06,25,09,20,16.60
2017,06,25,09,21,16.70
2017,06,25,09,22,16.80
2017,06,25,09,23,16.80
2017,06,25,09,24,16.80
2017,06,25,09,25,16.90
2017,06,25,09,26,16.90
2017,06,25,09,27,17.00
2017,06,25,09,28,17.00
2017,06,25,09,29,17.10
2017,06,25,09,30,17.10
2017,06,25,09,31,17.20
2017,06,25,09,32,17.20
2017,06,25,09,33,17.20
2017,06,25,09,34,17.30
2017,06,25,09,35,17.30
2017,06,25,09,36,17.40
2017,06,25,09,37,17.40
2017,06,25,09,38,17.40
2017,06,25,09,39,17.50
2017,06,25,09,40,17.60
2017,06,25,09,41,17.70
2017,06,25,09,42,17.70
2017,06,25,09,43,17.80
2017,06,25,09,44,17.80
2017,06,25,09,45,17.90
2017,06,25,09,46,17.90
2017,06,25,09,47,18.00
2017,06,25,09,48,18.10
2017,06,25,09,49,18.10
2017,06,25,09,50,18.20
2017,06,25,09,51,18.20
2017,06,25,09,52,18.30
2017,06,25,09,53,18.30
2017,06,25,09,54,18.30
2017,06,25,09,55,18.40
2017,06,25,09,56,18.40
2017,06,25,09,57,18.40
2017,06,25,09,58,18.40
2017,06,25,09,59,18.40
2017,06,25,10,00,18.40
2017,06,25,10,01,18.50
2017,06,25,10,02,18.50
2017,06,25,10,03,18.60
2017,06,25,10,04,18.60
2017,06,25,10,05,18.70
2017,06,25,10,06,18.70
2017,06,25,10,07,18.70
2017,06,25,10,08,18.80
2017,06,25,10,09,18.90
2017,06,25,10,10,19.00
2017,06,25,10,11,19.10
2017,06,25,10,12,19.10
2017,06,25,10,13,19.10
2017,06,25,10,14,19.10
2017,06,25,10,15,19.10
2017,06,25,10,16,19.10
2017,06,25,10,17,19.20
2017,06,25,10,18,19.20
2017,06,25,10,19,19.20
2017,06,25,10,20,19.20
2017,06,25,10,21,19.20
2017,06,25,10,22,19.20
2017,06,25,10,23,19.30
2017,06,25,10,24,19.30
2017,06,25,10,25,19.40
2017,06,25,10,26,19.40
2017,06,25,10,27,19.40
2017,06,25,10,28,19.40
2017,06,25,10,29,19.40
2017,06,25,10,30,19.40
2017,06,25,10,31,19.40
2017,06,25,10,32,19.50
2017,06,25,10,33,19.50
2017,06,25,10,34,19.60
2017,06,25,10,35,19.70
2017,06,25,10,36,19.70
2017,06,25,10,37,19.80
2017,06,25,10,38,19.80
2017,06,25,10,39,19.90
2017,06,25,10,40,19.90
2017,06,25,10,41,19.90
2017,06,25,10,42,19.90
2017,06,25,10,43,19.90
2017,06,25,10,44,19.90
2017,06,25,10,45,19.90
2017,06,25,10,46,19.90
2017,06,25,10,47,20.00
2017,06,25,10,48,20.00
2017,06,25,10,49,20.10
2017,06,25,10,50,20.10
2017,06,25,10,51,20.10
2017,06,25,10,52,20.10
2017,06,25,10,53,20.10
2017,06,25,10,54,20.10
2017,06,25,10,55,20.20
2017,06,25,10,56,20.20
2017,06,25,10,57,20.20
2017,06,25,10,58,20.30
2017,06,25,10,59,20.40
2017,06,25,11,00,20.40
2017,06,25,11,01,20.50
2017,06,25,11,02,20.60
2017,06,25,11,03,20.70
2017,06,25,11,04,20.70
2017,06,25,11,05,20.80
2017,06,25,11,06,20.80
2017,06,25,11,07,20.80
2017,06,25,11,08,20.80
2017,06,25,11,09,20.80
2017,06,25,11,10,20.90
2017,06,25,11,11,20.90
2017,06,25,11,12,20.90
2017,06,25,11,13,20.90
2017,06,25,11,14,20.80
2017,06,25,11,15,20.80
2017,06,25,11,16,20.80
2017,06,25,11,17,20.70
2017,06,25,11,18,20.70
2017,06,25,11,19,20.70
2017,06,25,11,20,20.70
2017,06,25,11,21,20.80
2017,06,25,11,22,20.90
2017,06,25,11,23,20.90
2017,06,25,11,24,20.90
2017,06,25,11,25,21.00
2017,06,25,11,26,21.00
2017,06,25,11,27,21.00
2017,06,25,11,28,21.00
2017,06,25,11,29,21.00
2017,06,25,11,30,21.10
2017,06,25,11,31,21.10
2017,06,25,11,32,21.20
2017,06,25,11,33,21.30
2017,06,25,11,34,21.40
2017,06,25,11,35,21.50
2017,06,25,11,36,21.60
2017,06,25,11,37,21.60
2017,06,25,11,38,21.70
2017,06,25,11,39,21.80
2017,06,25,11,40,21.90
2017,06,25,11,41,21.90
2017,06,25,11,42,21.90
2017,06,25,11,43,22.00
2017,06,25,11,44,22.10
2017,06,25,11,45,22.10
2017,06,25,11,46,22.10
2017,06,25,11,47,22.20
2017,06,25,11,48,22.20
2017,06,25,11,49,22.30
2017,06,25,11,50,22.30
2017,06,25,11,51,22.30
2017,06,25,11,52,22.30
2017,06,25,11,53,22.30
2017,06,25,11,54,22.30
2017,06,25,11,55,22.30
2017,06,25,11,56,22.30
2017,06,25,11,57,22.30
2017,06,25,11,58,22.40
2017,06,25,11,59,22.40
2017,06,25,12,00,22.50
2017,06,25,12,01,22.60
2017,06,25,12,02,22.70
2017,06,25,12,03,22.70
2017,06,25,12,04,22.80
2017,06,25,12,05,22.90
2017,06,25,12,06,23.00
2017,06,25,12,07,23.10
2017,06,25,12,08,23.20
2017,06,25,12,09,23.30
2017,06,25,12,10,23.40
2017,06,25,12,11,23.50
2017,06,25,12,12,23.60
2017,06,25,12,13,23.70
2017,06,25,12,14,23.80
2017,06,25,12,15,23.90
2017,06,25,12,16,24.00
2017,06,25,12,17,24.10
2017,06,25,12,18,24.20
2017,06,25,12,19,24.30
2017,06,25,12,20,24.40
2017,06,25,12,21,24.50
2017,06,25,12,22,24.60
2017,06,25,12,23,24.60
2017,06,25,12,24,24.70
2017,06,25,12,25,24.80
2017,06,25,12,26,24.80
2017,06,25,12,27,24.80
2017,06,25,12,28,24.80
2017,06,25,12,29,24.80
2017,06,25,12,30,24.80
2017,06,25,12,31,24.80
2017,06,25,12,32,24.80
2017,06,25,12,33,24.80
2017,06,25,12,34,24.80
2017,06,25,12,35,24.90
2017,06,25,12,36,24.90
2017,06,25,12,37,25.00
2017,06,25,12,38,25.10
2017,06,25,12,39,25.20
2017,06,25,12,40,25.30
2017,06,25,12,41,25.30
2017,06,25,12,42,25.30
2017,06,25,12,43,25.40
2017,06,25,12,44,25.40
2017,06,25,12,45,25.40
2017,06,25,12,46,25.40
2017,06,25,12,47,25.40
2017,06,25,12,48,25.40
2017,06,25,12,49,25.40
2017,06,25,12,50,25.40
2017,06,25,12,51,25.50
2017,06,25,12,52,25.50
2017,06,25,12,53,25.50
2017,06,25,12,54,25.50
2017,06,25,12,55,25.60
2017,06,25,12,56,25.60
2017,06,25,12,57,25.60
2017,06,25,12,58,25.60
2017,06,25,12,59,25.70
2017,06,25,13,00,25.70
2017,06,25,13,01,25.80
2017,06,25,13,02,25.80
2017,06,25,13,03,25.80
2017,06,25,13,04,25.80
2017,06,25,13,05,25.90
2017,06,25,13,06,26.00
2017,06,25,13,07,26.10
2017,06,25,13,08,26.10
2017,06,25,13,09,26.10
2017,06,25,13,10,26.20
2017,06,25,13,11,26.20
2017,06,25,13,12,26.20
2017,06,25,13,13,26.30
2017,06,25,13,14,26.40
2017,06,25,13,15,26.40
2017,06,25,13,16,26.50
2017,06,25,13,17,26.50
2017,06,25,13,18,26.50
2017,06,25,13,19,26.50
2017,06,25,13,20,26.50
2017,06,25,13,21,26.50
2017,06,25,13,22,26.50
2017,06,25,13,23,26.60
2017,06,25,13,24,26.60
2017,06,25,13,25,26.70
2017,06,25,13,26,26.80
2017,06,25,13,27,26.90
2017,06,25,13,28,27.00
2017,06,25,13,29,27.10
2017,06,25,13,30,27.10
2017,06,25,13,31,27.10
2017,06,25,13,32,27.10
2017,06,25,13,33,27.00
2017,06,25,13,34,27.00
2017,06,25,13,35,26.90
2017,06,25,13,36,26.90
2017,06,25,13,37,26.90
2017,06,25,13,38,26.90
2017,06,25,13,39,26.90
2017,06,25,13,40,26.90
2017,06,25,13,41,26.90
2017,06,25,13,42,26.90
2017,06,25,13,43,27.00
2017,06,25,13,44,27.00
2017,06,25,13,45,27.10
2017,06,25,13,46,27.10
2017,06,25,13,47,27.20
2017,06,25,13,48,27.30
2017,06,25,13,49,27.40
2017,06,25,13,50,27.40
2017,06,25,13,51,27.40
2017,06,25,13,52,27.50
2017,06,25,13,53,27.50
2017,06,25,13,54,27.50
2017,06,25,13,55,27.40
2017,06,25,13,56,27.40
2017,06,25,13,57,27.40
2017,06,25,13,58,27.40
2017,06,25,13,59,27.40
2017,06,25,14,00,27.40
2017,06,25,14,01,27.40
2017,06,25,14,02,27.40
2017,06,25,14,03,27.40
2017,06,25,14,04,27.30
2017,06,25,14,05,27.30
2017,06,25,14,06,27.30
2017,06,25,14,07,27.20
2017,06,25,14,08,27.20
2017,06,25,14,09,27.10
2017,06,25,14,10,27.10
2017,06,25,14,11,27.10
2017,06,25,14,12,27.10
2017,06,25,14,13,27.10
2017,06,25,14,14,27.10
2017,06,25,14,15,27.10
2017,06,25,14,16,27.10
2017,06,25,14,17,27.10
2017,06,25,14,18,27.10
2017,06,25,14,19,27.20
2017,06,25,14,20,27.20
2017,06,25,14,21,27.30
2017,06,25,14,22,27.30
2017,06,25,14,23,27.40
2017,06,25,14,24,27.50
2017,06,25,14,25,27.60
2017,06,25,14,26,27.60
2017,06,25,14,27,27.70
2017,06,25,14,28,27.70
2017,06,25,14,29,27.70
2017,06,25,14,30,27.70
2017,06,25,14,31,27.60
2017,06,25,14,32,27.60
2017,06,25,14,33,27.60
2017,06,25,14,34,27.50
2017,06,25,14,35,27.50
2017,06,25,14,36,27.40
2017,06,25,14,37,27.30
2017,06,25,14,38,27.20
2017,06,25,14,39,27.10
2017,06,25,14,40,27.00
2017,06,25,14,41,26.90
2017,06,25,14,42,26.90
2017,06,25,14,43,26.90
2017,06,25,14,44,26.90
2017,06,25,14,45,27.00
2017,06,25,14,46,27.00
2017,06,25,14,47,27.10
2017,06,25,14,48,27.10
2017,06,25,14,49,27.20
2017,06,25,14,50,27.20
2017,06,25,14,51,27.20
2017,06,25,14,52,27.20
2017,06,25,14,53,27.20
2017,06,25,14,54,27.20
2017,06,25,14,55,27.20
2017,06,25,14,56,27.20
2017,06,25,14,57,27.20
2017,06,25,14,58,27.20
2017,06,25,14,59,27.20
2017,06,25,15,00,27.20
2017,06,25,15,01,27.20
2017,06,25,15,02,27.20
2017,06,25,15,03,27.20
2017,06,25,15,04,27.20
2017,06,25,15,05,27.20
2017,06,25,15,06,27.20
2017,06,25,15,07,27.30
2017,06,25,15,08,27.30
2017,06,25,15,09,27.40
2017,06,25,15,10,27.50
2017,06,25,15,11,27.60
2017,06,25,15,12,27.70
2017,06,25,15,13,27.70
2017,06,25,15,14,27.80
2017,06,25,15,15,27.90
2017,06,25,15,16,27.90
2017,06,25,15,17,27.90
2017,06,25,15,18,28.00
2017,06,25,15,19,28.00
2017,06,25,15,20,28.10
2017,06,25,15,21,28.10
2017,06,25,15,22,28.10
2017,06,25,15,23,28.10
2017,06,25,15,24,28.10
2017,06,25,15,25,28.10
2017,06,25,15,26,28.10
2017,06,25,15,27,28.10
2017,06,25,15,28,28.10
2017,06,25,15,29,28.10
2017,06,25,15,30,28.10
2017,06,25,15,31,28.10
2017,06,25,15,32,28.00
2017,06,25,15,33,28.00
2017,06,25,15,34,28.00
2017,06,25,15,35,28.00
2017,06,25,15,36,28.00
2017,06,25,15,37,28.00
2017,06,25,15,38,28.10
2017,06,25,15,39,28.20
2017,06,25,15,40,28.20
2017,06,25,15,41,28.30
2017,06,25,15,42,28.30
2017,06,25,15,43,28.30
2017,06,25,15,44,28.30
2017,06,25,15,45,28.30
2017,06,25,15,46,28.30
2017,06,25,15,47,28.30
2017,06,25,15,48,28.30
2017,06,25,15,49,28.40
2017,06,25,15,50,28.40
2017,06,25,15,51,28.40
2017,06,25,15,52,28.50
2017,06,25,15,53,28.50
2017,06,25,15,54,28.50
2017,06,25,15,55,28.50
2017,06,25,15,56,28.40
2017,06,25,15,57,28.40
2017,06,25,15,58,28.30
2017,06,25,15,59,28.30
2017,06,25,16,00,28.30
2017,06,25,16,01,28.30
2017,06,25,16,02,28.40
2017,06,25,16,03,28.50
2017,06,25,16,04,28.50
2017,06,25,16,05,28.60
2017,06,25,16,06,28.60
2017,06,25,16,07,28.70
2017,06,25,16,08,28.70
2017,06,25,16,09,28.70
2017,06,25,16,10,28.70
2017,06,25,16,11,28.80
2017,06,25,16,12,28.90
2017,06,25,16,13,29.00
2017,06,25,16,14,29.00
2017,06,25,16,15,29.10
2017,06,25,16,16,29.10
2017,06,25,16,17,29.20
2017,06,25,16,18,29.10
2017,06,25,16,19,29.10
2017,06,25,16,20,29.10
2017,06,25,16,21,29.10
2017,06,25,16,22,29.00
2017,06,25,16,23,29.00
2017,06,25,16,24,29.10
2017,06,25,16,25,29.10
2017,06,25,16,26,29.10
2017,06,25,16,27,29.10
2017,06,25,16,28,29.10
2017,06,25,16,29,29.10
2017,06,25,16,30,29.10
2017,06,25,16,31,29.10
2017,06,25,16,32,29.10
2017,06,25,16,33,29.10
2017,06,25,16,34,29.00
2017,06,25,16,35,28.90
2017,06,25,16,36,28.80
2017,06,25,16,37,28.80
2017,06,25,16,38,28.70
2017,06,25,16,39,28.60
2017,06,25,16,40,28.50
2017,06,25,16,41,28.40
2017,06,25,16,42,28.30
2017,06,25,16,43,28.20
2017,06,25,16,44,28.10
2017,06,25,16,45,28.00
2017,06,25,16,46,27.90
2017,06,25,16,47,27.80
2017,06,25,16,48,27.70
2017,06,25,16,49,27.50
2017,06,25,16,50,27.30
2017,06,25,16,51,27.20
2017,06,25,16,52,27.00
2017,06,25,16,53,26.90
2017,06,25,16,54,26.80
2017,06,25,16,55,26.70
2017,06,25,16,56,26.60
2017,06,25,16,57,26.40
2017,06,25,16,58,26.30
2017,06,25,16,59,26.30
2017,06,25,17,00,26.20
2017,06,25,17,01,26.20
2017,06,25,17,02,26.20
2017,06,25,17,03,26.20
2017,06,25,17,04,26.20
2017,06,25,17,05,26.20
2017,06,25,17,06,26.20
2017,06,25,17,07,26.20
2017,06,25,17,08,26.20
2017,06,25,17,09,26.20
2017,06,25,17,10,26.20
2017,06,25,17,11,26.30
2017,06,25,17,12,26.30
2017,06,25,17,13,26.30
2017,06,25,17,14,26.30
2017,06,25,17,15,26.20
2017,06,25,17,16,26.20
2017,06,25,17,17,26.20
2017,06,25,17,18,26.20
2017,06,25,17,19,26.20